Temperature
20 21 22 23 22 21 21 20 20 21 21 22 21 21 21 22 23 23 23 23 24 24 23 23 23 23 22 22 22 21 20 20 20 19 19 19 18 18 18 17 17 17 17 16
21 21 22 23 22 22 22 21 21 22 21 21 21 22 21 22 22 22 23 23 24 24 24 23 23 23 23 22 22 21 21 20 20 19 19 19 18 18 18 17 17 17 17 16
19 21 22 22 22 22 22 21 22 22 22 21 20 20 21 22 22 23 24 24 24 24 24 23 23 23 23 22 22 21 21 20 20 19 19 19 18 18 18 17 17 17 17 16
17 20 21 21 21 22 22 22 21 22 21 20 21 22 22 23 23 24 25 25 24 24 24 24 23 23 23 22 22 21 21 20 20 19 19 19 18 18 18 17 17 17 17 16
16 19 20 21 21 21 21 21 20 20 20 20 21 21 21 23 24 24 25 25 25 24 24 24 23 23 22 22 22 21 21 21 20 20 19 19 18 18 18 17 17 17 16 16
16 19 20 21 21 21 22 22 20 20 19 19 20 20 21 24 24 24 24 24 24 24 24 23 23 22 22 22 22 21 21 21 20 19 19 19 18 18 18 17 17 16 16 16
16 18 18 19 20 21 21 21 21 20 20 19 20 22 24 24 24 24 24 24 24 23 23 23 23 22 22 22 21 21 21 20 19 19 19 18 18 18 17 17 16 16 16 15
15 18 19 19 19 20 19 21 21 21 21 21 22 23 23 24 24 24 23 23 23 23 23 23 23 22 22 21 21 21 20 20 19 19 19 18 18 17 17 17 16 16 16 15
15 16 17 18 19 20 21 21 21 21 21 22 21 22 23 23 23 23 23 23 23 23 22 22 22 22 21 21 21 20 20 20 19 19 18 18 18 17 17 16 16 16 16 15
14 15 16 18 19 20 21 21 21 22 22 22 21 21 22 22 22 22 22 22 22 22 22 22 21 21 21 21 21 20 20 19 19 18 18 18 17 17 17 16 16 16 16 15
14 15 16 18 19 20 20 21 21 21 21 21 21 21 22 22 22 22 22 21 21 21 21 21 21 20 20 20 20 20 19 19 18 18 18 17 17 17 17 16 16 16 16 15
14 15 15 17 19 19 20 20 21 21 20 20 21 21 21 21 21 21 21 21 21 21 21 20 20 20 20 19 19 19 19 18 18 17 17 17 17 16 16 16 16 15 15 15
16 17 17 18 19 19 19 20 20 20 20 20 20 21 21 20 20 20 20 20 20 20 20 19 19 19 19 19 19 19 18 18 17 17 17 17 16 16 16 15 15 15 15 15
17 17 17 17 18 19 19 19 19 19 19 20 20 20 20 20 20 20 19 19 19 19 19 19 19 19 19 19 18 18 18 18 17 17 17 16 16 16 16 15 15 15 15 14
16 17 17 17 18 18 18 18 18 18 19 19 19 19 19 19 19 19 19 19 19 19 19 18 18 18 18 18 18 17 17 17 17 17 16 16 16 16 15 15 15 15 14 14
16 16 17 17 17 17 17 18 18 18 18 18 18 18 18 18 18 18 18 18 18 18 18 18 18 18 17 17 17 17 17 16 16 16 16 15 15 15 15 15 15 14 14 14
15 15 16 16 16 17 17 17 17 17 17 17 18 18 17 17 17 17 17 17 17 17 17 17 17 17 17 16 16 16 16 16 16 15 15 15 15 15 15 14 14 14 14 14
16 16 16 16 16 16 16 16 16 17 17 17 17 17 17 17 17 17 16 16 16 16 16 17 16 16 16 16 16 16 15 15 15 15 15 14 14 14 14 14 14 14 13 13
15 16 16 16 16 16 16 16 16 16 16 16 16 16 16 16 16 16 16 16 16 16 16 16 16 16 15 15 15 15 15 15 15 15 14 14 14 14 14 14 13 13 13 13
15 15 15 15 15 15 15 15 16 16 16 16 15 15 15 15 15 15 15 15 15 15 15 15 15 15 15 15 15 15 14 14 14 14 14 13 13 13 13 13 13 13 13 13
14 15 15 15 15 15 15 15 15 15 15 15 15 15 15 14 15 15 15 15 15 15 15 15 15 14 14 14 14 14 14 14 14 13 13 13 13 13 13 13 13 13 13 13
14 14 14 14 14 14 14 14 14 14 14 14 14 14 14 14 14 14 14 14 14 14 14 14 14 14 14 14 14 14 14 14 13 13 13 13 13 13 13 13 13 12 12 12
14 14 14 14 14 14 14 14 14 14 14 14 14 14 14 14 13 13 13 14 14 13 13 14 14 14 14 13 13 13 13 13 13 13 13 13 13 12 12 12 12 12 12 12
13 13 13 13 13 13 13 13 13 13 13 13 13 13 13 13 13 13 13 13 13 13 13 13 13 13 13 13 13 13 13 13 13 13 12 12 12 12 12 12 12 12 12 12
13 13 13 13 13 13 13 13 13 13 13 13 13 13 13 13 13 13 13 13 13 13 13 13 13 13 13 13 13 13 13 12 12 12 12 12 12 12 12 12 11 11 11 11
12 12 12 12 12 12 12 12 12 12 12 12 12 12 12 12 12 12 12 12 12 12 12 12 12 12 12 12 12 12 12 12 12 12 12 11 11 12 11 11 11 11 11 10
12 12 12 12 12 12 12 12 12 12 12 12 12 12 12 12 12 12 12 12 12 12 12 12 12 12 12 12 12 12 12 11 11 11 11 11 11 11 11 11 11 11 10 10
Wind_Speed
4 4 5 5 7 9 7 9 9 9 9 10 8 8 7 6 7 8 8 9 10 10 9 9 8 8 8 8 8 7 7 7 6 5 4 4 4 4 4 4 4 3 3 2
2 2 4 4 7 9 7 6 6 5 8 8 4 4 5 6 9 9 9 10 9 9 9 10 10 9 9 9 8 8 8 7 6 5 5 5 4 4 4 4 3 3 3 2
3 1 3 4 7 8 6 5 8 8 9 3 4 7 9 9 10 10 10 9 10 10 10 9 10 10 10 9 8 8 8 7 7 6 6 5 5 5 5 4 3 3 2 2
4 4 6 8 4 6 6 5 5 6 5 6 7 6 5 5 8 9 8 9 9 9 8 7 7 7 8 8 9 9 8 7 7 7 7 6 6 5 4 4 4 3 3 3
5 5 5 5 2 5 5 5 4 5 3 3 4 4 1 3 5 8 8 8 8 8 7 7 8 8 8 8 8 9 9 9 8 8 8 7 7 6 4 4 4 3 3 3
5 6 8 7 4 3 5 5 4 5 5 5 6 4 6 4 5 5 6 6 7 7 7 7 7 8 9 8 8 9 10 9 8 9 9 8 8 6 5 5 4 4 3 2
4 4 7 6 3 4 7 8 4 5 6 7 7 6 5 6 5 6 6 6 7 8 7 7 8 9 9 8 8 8 7 7 8 8 9 8 7 5 5 5 4 3 3 2
5 4 7 3 3 6 7 3 3 5 5 6 5 3 4 5 6 6 5 6 7 7 6 6 8 9 8 8 7 6 7 7 7 7 7 7 7 6 5 5 5 4 3 2
7 6 5 3 4 4 3 2 3 4 3 5 4 4 4 4 5 4 5 6 6 7 6 5 7 9 9 8 7 7 7 7 6 6 6 6 7 7 6 5 5 4 4 4
1 4 4 4 2 2 1 2 2 3 5 6 5 5 5 5 4 4 4 5 5 6 6 5 6 7 8 7 8 8 7 6 6 6 6 6 5 6 6 6 6 5 5 5
1 3 2 3 2 2 2 1 3 4 4 6 7 6 6 5 4 4 4 4 5 6 6 6 6 5 5 6 8 8 7 6 6 6 6 6 5 5 6 6 7 7 7 6
5 5 4 4 3 1 1 2 3 5 4 4 6 6 6 5 4 5 4 4 5 5 4 4 5 5 5 6 8 8 7 6 6 5 5 5 5 3 3 4 6 9 8 7
5 3 3 2 1 1 1 2 2 3 5 5 4 6 6 5 4 4 4 4 4 4 4 4 5 4 5 6 7 8 7 7 6 6 6 6 6 6 4 2 4 6 8 9
3 2 1 1 1 2 3 4 5 5 5 5 5 6 7 5 4 4 4 3 3 4 4 4 4 3 3 5 6 7 7 7 7 6 6 6 6 6 6 6 4 4 5 8
0 2 4 3 3 4 4 6 7 6 5 4 4 5 6 6 4 3 2 2 3 3 3 4 3 2 2 4 5 6 6 5 6 5 6 6 6 6 6 6 6 4 3 3
2 4 4 5 4 4 5 6 6 4 3 3 3 3 4 4 4 3 2 2 2 2 3 3 3 3 3 4 4 4 4 6 6 5 5 5 5 5 5 6 6 6 6 5
4 3 3 3 4 4 4 3 4 3 3 3 3 3 4 4 4 2 1 1 2 2 2 3 3 2 3 4 4 3 3 4 5 4 4 5 5 6 6 6 6 6 6 6
3 5 5 5 5 5 4 3 3 3 3 2 3 4 3 3 2 1 1 1 1 1 1 0 1 2 2 3 3 3 3 3 3 4 4 4 5 5 5 5 6 6 4 4
2 3 4 4 4 4 3 2 2 2 2 3 4 3 1 1 1 1 1 1 1 1 2 1 1 2 2 2 3 2 3 3 3 3 3 4 4 4 5 5 5 5 5 4
3 3 3 3 3 3 3 2 2 2 2 2 3 3 2 1 1 1 2 1 2 3 3 2 2 2 2 3 3 2 3 3 3 3 3 3 4 5 5 5 5 5 5 5
3 3 3 3 3 2 2 2 2 2 1 2 2 2 2 2 1 1 1 1 3 3 2 2 1 2 2 3 3 3 3 3 3 4 4 4 4 4 4 5 5 5 5 5
2 3 2 2 3 2 1 1 1 1 1 1 1 1 1 1 1 1 2 3 3 3 2 1 1 2 2 2 2 3 3 3 3 3 4 4 4 4 4 4 4 4 5 5
2 2 2 2 2 2 0 0 1 2 2 2 2 2 3 3 2 2 3 3 2 3 2 2 2 2 2 2 2 3 3 4 4 4 4 4 4 5 5 5 5 5 4 4
1 1 2 2 2 2 0 1 1 1 1 2 3 3 3 2 3 3 3 3 3 3 3 3 4 4 3 2 3 3 4 4 4 4 4 4 4 4 4 4 4 4 4 5
0 0 1 2 1 1 1 1 0 0 1 1 3 3 3 3 3 3 2 2 3 3 2 3 4 4 3 2 3 3 4 4 4 4 4 4 4 4 4 3 3 3 3 4
1 0 1 1 2 2 2 1 1 1 1 1 2 2 2 1 2 2 2 2 3 3 2 2 2 2 2 2 3 3 3 3 3 3 4 4 4 4 3 4 4 4 4 4
1 0 0 1 1 1 1 1 1 1 1 1 2 2 2 1 1 1 1 1 1 2 2 2 2 2 2 2 2 2 2 2 2 2 3 3 3 3 3 4 3 3 4 4
Wind_Direction
196 189 168 173 177 176 179 178 179 216 224 244 227 207 199 182 161 159 165 168 172 172 171 171 175 175 175 177 174 172 170 175 188 185 172 159 152 148 142 139 140 136 121 106
164 192 180 184 191 188 192 181 194 202 241 248 219 164 172 176 169 173 178 179 179 177 175 177 178 178 178 179 174 166 174 182 178 168 165 164 161 154 148 145 139 131 130 133
199 217 124 220 205 191 194 190 175 202 229 199 178 189 191 187 185 187 187 182 180 183 188 189 184 178 179 178 168 168 177 178 173 169 168 171 166 160 163 163 154 145 144 150
147 124 201 234 226 186 188 202 202 217 218 195 194 189 180 179 186 190 186 186 188 187 188 185 176 169 165 162 164 171 176 178 175 170 172 170 167 173 175 165 162 167 169 166
135 168 242 282 207 168 174 233 219 208 205 173 115 88 332 210 189 193 189 186 184 181 175 169 168 163 157 162 166 175 183 184 182 176 174 174 178 178 175 169 170 174 169 166
131 155 211 231 242 206 147 245 230 182 176 161 126 152 236 208 180 177 170 167 160 152 145 156 164 154 156 167 174 188 191 187 180 176 176 181 183 177 171 171 176 169 167 177
149 184 244 249 273 127 158 232 230 180 180 171 183 199 199 158 164 169 161 156 149 146 154 164 160 154 161 170 189 195 183 174 173 178 181 181 176 172 165 164 161 166 171 185
149 172 239 274 127 167 210 238 192 179 184 185 189 155 129 140 157 159 147 140 146 147 154 155 155 154 161 181 187 169 164 165 174 178 178 175 168 167 162 163 167 179 182 198
183 205 244 247 221 237 202 198 196 181 185 172 159 156 138 142 150 149 146 143 145 147 147 149 159 162 172 185 164 157 162 168 172 169 169 167 169 169 168 172 185 193 196 211
214 267 278 282 285 297 255 231 209 172 159 156 154 154 146 140 142 136 129 139 139 140 147 158 166 174 181 170 159 159 167 173 170 169 172 174 175 176 179 186 192 197 203 215
225 270 330 324 313 315 346 65 102 116 140 152 140 139 145 142 146 137 125 129 135 150 161 170 167 171 167 156 158 164 170 175 176 179 178 182 186 192 194 201 197 197 204 207
213 218 194 246 286 344 49 72 115 118 112 121 135 141 135 135 139 134 135 133 133 139 141 153 155 162 164 162 163 164 174 181 184 183 183 185 185 192 206 210 207 206 206 202
215 214 205 227 316 13 76 74 88 116 134 130 120 128 126 122 128 124 127 132 143 148 147 146 148 157 163 167 167 171 180 184 185 186 188 191 191 194 209 227 214 213 215 215
200 151 100 120 82 49 74 71 78 79 83 100 109 118 121 116 118 124 137 147 150 145 149 148 139 154 170 168 171 178 182 188 189 193 195 198 200 203 205 210 221 233 227 219
344 161 164 126 87 70 77 85 84 78 79 82 98 116 121 124 132 132 122 122 126 136 149 146 148 178 179 171 179 184 186 192 195 197 197 200 201 204 209 211 218 226 234 234
80 86 102 106 110 103 95 96 98 92 92 92 95 102 114 118 117 113 116 129 146 172 181 172 181 192 177 169 170 182 192 195 192 193 196 199 200 204 212 217 219 221 226 229
124 129 134 140 134 117 106 112 124 126 109 100 97 94 98 99 99 107 120 150 165 185 185 178 183 173 164 161 162 174 186 189 183 187 200 204 206 211 215 219 224 229 232 221
166 176 172 164 153 133 117 108 110 106 108 113 107 95 102 119 137 169 182 129 81 49 14 195 159 158 161 164 166 172 178 188 196 204 209 213 215 216 216 220 227 232 239 225
142 146 147 139 134 129 126 131 129 121 109 108 113 112 116 118 152 186 173 131 107 314 302 293 179 173 181 184 171 177 185 195 207 218 217 212 216 223 221 221 228 231 228 221
114 117 121 118 117 126 136 138 124 108 106 117 117 113 104 244 207 172 153 174 236 245 253 260 223 199 199 191 172 180 194 204 215 220 218 220 224 229 228 224 227 230 228 224
117 121 121 117 101 97 133 149 138 136 136 131 138 157 192 236 228 184 169 254 278 267 249 234 228 226 213 196 184 192 201 208 221 228 225 222 226 234 237 232 227 226 227 228
121 129 140 137 123 106 79 121 136 138 153 185 209 201 194 228 250 264 247 243 254 260 262 248 243 242 233 210 207 205 209 215 224 231 228 225 222 225 229 232 232 228 226 226
134 145 154 144 142 149 134 114 144 155 180 214 221 222 233 246 241 236 267 264 245 235 233 238 243 239 235 223 220 218 218 224 228 228 233 232 228 225 224 227 225 222 222 226
118 143 167 159 136 125 157 269 223 190 208 240 243 232 223 239 265 255 242 251 244 236 240 243 244 241 232 225 225 230 232 231 232 233 233 233 229 227 226 226 226 223 219 221
144 126 126 125 129 186 219 232 5 14 290 278 276 266 247 224 229 252 249 246 242 239 256 255 247 247 243 239 235 237 239 239 233 227 226 224 225 224 224 224 224 223 221 222
153 145 246 235 228 232 224 192 175 190 229 279 298 294 282 258 231 241 246 246 244 238 246 257 250 248 251 243 240 240 239 239 234 229 226 224 225 222 218 214 217 218 220 222
75 80 29 347 320 276 232 188 183 199 215 231 277 289 280 270 255 246 245 250 252 252 256 262 257 249 252 248 244 241 238 238 235 234 234 233 231 225 216 211 210 211 216 217
Height
1478 1476 1477 1478 1483 1487 1490 1496 1503 1499 1495 1483 1479 1479 1480 1482 1485 1488 1490 1493 1496 1500 1503 1507 1511 1514 1518 1521 1524 1527 1529 1531 1533 1535 1537 1538 1539 1540 1541 1541 1541 1541 1541 1541
1478 1475 1475 1478 1478 1480 1482 1486 1488 1487 1487 1474 1474 1476 1479 1480 1483 1485 1488 1491 1494 1497 1501 1504 1508 1511 1515 1518 1521 1524 1527 1529 1531 1533 1535 1536 1537 1538 1539 1540 1540 1540 1540 1539
1488 1480 1478 1486 1477 1477 1478 1478 1480 1485 1478 1472 1474 1474 1476 1477 1480 1482 1485 1488 1491 1495 1498 1502 1505 1509 1512 1516 1519 1522 1524 1527 1529 1531 1532 1534 1535 1536 1537 1537 1538 1538 1538 1538
1490 1487 1496 1479 1466 1467 1470 1471 1471 1470 1469 1469 1469 1470 1474 1476 1478 1480 1483 1486 1489 1493 1497 1501 1504 1508 1511 1514 1517 1519 1522 1524 1526 1528 1530 1532 1533 1534 1535 1536 1536 1537 1537 1536
1494 1494 1486 1472 1465 1466 1471 1471 1467 1467 1467 1468 1469 1471 1474 1475 1477 1479 1482 1485 1488 1491 1495 1499 1502 1506 1509 1512 1514 1517 1519 1521 1523 1525 1527 1529 1530 1532 1533 1534 1534 1535 1535 1535
1490 1491 1492 1473 1460 1459 1465 1472 1463 1464 1465 1467 1469 1476 1474 1472 1475 1478 1481 1484 1486 1490 1493 1497 1500 1503 1507 1509 1512 1514 1516 1518 1521 1523 1524 1526 1527 1528 1530 1531 1532 1532 1533 1533
1486 1486 1478 1462 1458 1459 1476 1471 1459 1461 1463 1465 1466 1467 1468 1470 1473 1476 1479 1482 1485 1488 1491 1494 1497 1501 1503 1506 1509 1512 1514 1516 1518 1520 1521 1523 1524 1526 1527 1528 1529 1530 1530 1530
1485 1485 1478 1457 1457 1461 1462 1456 1456 1457 1459 1462 1462 1464 1466 1468 1471 1474 1477 1480 1483 1485 1488 1491 1495 1498 1500 1503 1507 1510 1512 1514 1515 1517 1518 1519 1521 1523 1524 1525 1526 1527 1527 1528
1470 1470 1459 1456 1455 1454 1454 1454 1454 1456 1457 1459 1461 1463 1465 1468 1471 1473 1476 1478 1480 1483 1486 1489 1492 1495 1497 1501 1504 1507 1509 1511 1512 1514 1515 1517 1518 1519 1520 1522 1523 1523 1524 1525
1464 1459 1456 1454 1453 1453 1453 1453 1454 1454 1456 1458 1459 1462 1464 1467 1470 1472 1474 1476 1479 1481 1483 1486 1489 1492 1495 1498 1501 1504 1506 1508 1509 1511 1512 1514 1515 1516 1517 1518 1519 1520 1521 1522
1461 1457 1455 1454 1453 1453 1452 1453 1453 1454 1456 1457 1458 1460 1463 1466 1469 1471 1473 1475 1477 1479 1481 1484 1486 1490 1493 1495 1498 1500 1503 1505 1506 1508 1509 1510 1511 1512 1514 1515 1516 1517 1518 1519
1459 1454 1455 1454 1453 1453 1452 1452 1452 1453 1455 1457 1458 1460 1462 1465 1468 1470 1473 1474 1476 1478 1479 1482 1485 1487 1490 1493 1495 1498 1499 1501 1503 1505 1506 1507 1508 1510 1511 1513 1514 1514 1514 1515
1451 1451 1452 1452 1453 1453 1453 1452 1453 1454 1455 1456 1458 1460 1462 1465 1468 1470 1472 1474 1475 1477 1479 1481 1483 1485 1487 1490 1492 1494 1496 1498 1500 1502 1503 1504 1505 1506 1507 1509 1509 1510 1510 1511
1449 1450 1451 1451 1453 1453 1453 1453 1454 1455 1456 1458 1459 1461 1463 1465 1468 1470 1471 1473 1475 1477 1479 1480 1482 1483 1485 1487 1489 1491 1493 1495 1497 1498 1499 1500 1501 1502 1503 1504 1504 1504 1506 1507
1448 1449 1450 1451 1453 1454 1455 1455 1455 1456 1458 1459 1461 1462 1463 1465 1468 1470 1471 1473 1475 1477 1478 1479 1480 1481 1484 1485 1487 1488 1489 1491 1492 1494 1495 1496 1497 1498 1499 1499 1500 1500 1501 1502
1448 1449 1450 1452 1453 1455 1456 1456 1457 1458 1459 1460 1461 1462 1464 1466 1468 1470 1471 1473 1474 1475 1476 1477 1479 1480 1482 1483 1484 1485 1486 1488 1489 1490 1491 1492 1493 1493 1494 1495 1495 1496 1496 1497
1447 1449 1451 1452 1453 1455 1456 1457 1458 1459 1460 1461 1462 1463 1465 1466 1467 1469 1470 1472 1473 1474 1475 1476 1476 1478 1479 1480 1481 1482 1483 1484 1485 1486 1487 1487 1488 1489 1490 1490 1490 1491 1491 1492
1447 1449 1451 1452 1453 1454 1456 1458 1459 1460 1460 1462 1462 1463 1465 1466 1467 1468 1469 1471 1472 1472 1473 1474 1475 1476 1477 1478 1479 1479 1480 1481 1481 1482 1483 1483 1484 1484 1485 1485 1486 1487 1487 1487
1448 1449 1451 1452 1454 1454 1456 1458 1459 1460 1461 1462 1463 1464 1465 1465 1467 1468 1469 1469 1470 1470 1471 1473 1473 1474 1475 1476 1477 1477 1477 1478 1478 1478 1479 1479 1479 1480 1480 1480 1481 1482 1482 1482
1448 1449 1450 1452 1453 1455 1456 1457 1458 1459 1460 1462 1463 1464 1464 1466 1466 1467 1467 1467 1468 1469 1470 1471 1471 1472 1472 1473 1473 1473 1474 1474 1475 1475 1475 1475 1475 1475 1475 1475 1476 1477 1478 1478
1447 1449 1450 1451 1452 1454 1456 1457 1458 1458 1460 1461 1462 1462 1463 1464 1465 1464 1464 1464 1466 1467 1467 1468 1469 1469 1469 1469 1469 1470 1470 1470 1471 1471 1471 1471 1471 1471 1471 1471 1471 1472 1473 1473
1448 1449 1450 1451 1452 1454 1455 1456 1456 1457 1459 1460 1461 1462 1462 1462 1462 1461 1462 1462 1463 1464 1464 1464 1465 1466 1466 1466 1466 1466 1466 1466 1466 1466 1467 1467 1466 1466 1466 1467 1467 1467 1468 1468
1448 1449 1450 1451 1451 1452 1453 1454 1455 1456 1457 1458 1459 1459 1459 1459 1459 1459 1458 1459 1460 1460 1461 1461 1462 1462 1462 1462 1462 1462 1462 1462 1462 1463 1462 1462 1461 1461 1461 1462 1462 1462 1463 1463
1448 1449 1450 1450 1451 1451 1451 1452 1453 1454 1455 1456 1457 1457 1457 1456 1456 1456 1456 1456 1457 1457 1457 1458 1458 1458 1458 1458 1458 1458 1458 1458 1458 1458 1457 1457 1457 1457 1457 1457 1457 1457 1458 1459
1449 1449 1449 1449 1449 1450 1450 1451 1451 1451 1453 1454 1454 1454 1454 1454 1453 1453 1453 1453 1453 1453 1454 1454 1454 1454 1454 1454 1454 1454 1454 1454 1454 1453 1453 1453 1453 1453 1452 1453 1453 1453 1454 1455
1448 1448 1449 1449 1449 1449 1449 1449 1448 1449 1451 1451 1451 1451 1451 1451 1451 1450 1450 1450 1450 1450 1450 1450 1450 1450 1450 1450 1450 1450 1450 1449 1449 1449 1449 1448 1448 1448 1448 1448 1449 1450 1450 1451
1447 1448 1448 1448 1448 1448 1448 1447 1447 1447 1449 1449 1449 1448 1448 1447 1447 1447 1447 1447 1447 1447 1447 1447 1447 1447 1446 1446 1446 1446 1445 1445 1445 1444 1444 1445 1444 1444 1444 1445 1445 1446 1446 1447